| time (UTC) | temp F | wind direction | speed MPH | gust MPH | rain 1hr in | rain 24hr in | rain mn in | humidity % | barometer mb |
| 20260502151506 | 62 | 98 | 2.0 | 6.0 | 0.00 | 0.00 | 0.00 | 100 | 1014.1 |
| 20260502123005 | 63 | 360 | 2.0 | 9.0 | 0.00 | 0.00 | 0.00 | 100 | 1016.0 |
| 20260502121505 | 62 | 185 | 3.0 | 5.0 | 0.00 | 0.00 | 0.00 | 100 | 1016.3 |
| 20260502114505 | 61 | 225 | 3.0 | 7.0 | 0.00 | 0.00 | 0.00 | 100 | 1016.4 |
| 20260502113006 | 60 | 158 | 4.0 | 6.0 | 0.00 | 0.00 | 0.00 | 100 | 1016.7 |
| 20260502110010 | 60 | 276 | 4.0 | 9.0 | 0.00 | 0.00 | 0.00 | 100 | 1017.4 |
| 20260502104505 | 60 | 281 | 4.0 | 8.0 | 0.00 | 0.00 | 0.00 | 100 | 1017.5 |
| 20260502103006 | 59 | 292 | 5.0 | 10.0 | 0.00 | 0.00 | 0.00 | 100 | 1017.4 |
| 20260502101505 | 58 | 253 | 3.0 | 8.0 | 0.00 | 0.00 | 0.00 | 100 | 1017.5 |
| 20260502071505 | 49 | 290 | 3.0 | 8.0 | 0.00 | 0.00 | 0.00 | 100 | 1018.4 |
| 20260502070008 | 48 | 360 | 2.0 | 6.0 | 0.00 | 0.00 | 0.00 | 100 | 1018.5 |
| 20260502063005 | 48 | 360 | 2.0 | 5.0 | 0.00 | 0.00 | 0.00 | 100 | 1018.4 |
| 20260502060009 | 47 | 360 | 2.0 | 5.0 | 0.00 | 0.00 | 0.00 | 100 | 1018.2 |
| 20260502054505 | 47 | 360 | 1.0 | 4.0 | 0.00 | 0.00 | 0.00 | 100 | 1018.1 |
| 20260502053005 | 46 | 360 | 1.0 | 4.0 | 0.00 | 0.00 | 0.00 | 100 | 1018.1 |
| 20260502051506 | 46 | 360 | 2.0 | 4.0 | 0.00 | 0.00 | 0.00 | 100 | 1018.1 |
| 20260502050012 | 46 | 360 | 2.0 | 5.0 | 0.00 | 0.00 | 0.00 | 100 | 1018.3 |
| 20260502044505 | 44 | 360 | 1.0 | 3.0 | 0.00 | 0.00 | 0.00 | 100 | 1018.2 |
| 20260502041505 | 45 | 360 | 0.0 | 0.0 | 0.00 | 0.00 | 0.00 | 100 | 1018.3 |
| 20260502040008 | 45 | 360 | 0.0 | 0.0 | 0.00 | 0.00 | 0.00 | 100 | 1018.4 |
| 20260502034505 | 45 | 360 | 0.0 | 0.0 | 0.00 | 0.00 | 0.00 | 100 | 1018.4 |
| 20260502033005 | 46 | 360 | 0.0 | 0.0 | 0.00 | 0.00 | 0.00 | 100 | 1018.5 |
| 20260502031505 | 46 | 360 | 0.0 | 2.0 | 0.00 | 0.00 | 0.00 | 100 | 1018.6 |
| 20260502030008 | 47 | 360 | 1.0 | 3.0 | 0.00 | 0.00 | 0.00 | 100 | 1018.6 |
| 20260502024505 | 47 | 360 | 2.0 | 3.0 | 0.00 | 0.00 | 0.00 | 100 | 1018.6 |
| 20260502021505 | 48 | 360 | 2.0 | 6.0 | 0.00 | 0.00 | 0.00 | 100 | 1018.8 |
| 20260502014505 | 49 | 360 | 2.0 | 4.0 | 0.00 | 0.00 | 0.00 | 100 | 1019.0 |
| 20260502011505 | 50 | 360 | 3.0 | 6.0 | 0.00 | 0.00 | 0.00 | 100 | 1019.4 |
| 20260502010008 | 50 | 360 | 2.0 | 4.0 | 0.00 | 0.00 | 0.00 | 100 | 1019.4 |
| 20260502004505 | 50 | 360 | 2.0 | 5.0 | 0.00 | 0.00 | 0.00 | 100 | 1019.5 |
| 20260502003005 | 51 | 360 | 3.0 | 6.0 | 0.00 | 0.00 | 0.00 | 100 | 1019.6 |
| 20260502000007 | 51 | 360 | 3.0 | 6.0 | 0.00 | 0.00 | 0.00 | 100 | 1019.7 |
| 20260501233006 | 52 | 360 | 3.0 | 6.0 | 0.00 | 0.00 | 0.00 | 100 | 1019.8 |
| 20260501231506 | 52 | 360 | 3.0 | 6.0 | 0.00 | 0.00 | 0.00 | 100 | 1019.9 |
| 20260501230011 | 53 | 360 | 3.0 | 6.0 | 0.00 | 0.00 | 0.00 | 100 | 1019.9 |
| 20260501223006 | 54 | 360 | 4.0 | 9.0 | 0.00 | 0.00 | 0.00 | 100 | 1019.8 |
| 20260501221506 | 54 | 360 | 4.0 | 8.0 | 0.00 | 0.00 | 0.00 | 100 | 1019.7 |
| 20260501220010 | 54 | 360 | 3.0 | 6.0 | 0.00 | 0.00 | 0.00 | 100 | 1019.7 |
| 20260501213006 | 54 | 360 | 4.0 | 8.0 | 0.00 | 0.00 | 0.00 | 100 | 1019.8 |
| 20260501211506 | 54 | 360 | 4.0 | 9.0 | 0.00 | 0.00 | 0.00 | 100 | 1019.8 |
| 20260501210009 | 54 | 360 | 4.0 | 8.0 | 0.00 | 0.00 | 0.00 | 100 | 1019.8 |
| 20260501204506 | 54 | 360 | 3.0 | 9.0 | 0.00 | 0.00 | 0.00 | 100 | 1019.9 |
| 20260501203006 | 55 | 360 | 4.0 | 9.0 | 0.00 | 0.00 | 0.00 | 100 | 1019.8 |
| 20260501201506 | 54 | 360 | 3.0 | 5.0 | 0.00 | 0.00 | 0.00 | 100 | 1019.9 |
| 20260501200009 | 55 | 360 | 3.0 | 9.0 | 0.00 | 0.00 | 0.00 | 100 | 1019.9 |
| 20260501194506 | 55 | 360 | 4.0 | 9.0 | 0.00 | 0.00 | 0.00 | 100 | 1019.8 |
| 20260501193006 | 55 | 360 | 4.0 | 9.0 | 0.00 | 0.00 | 0.00 | 100 | 1019.9 |
| 20260501191506 | 55 | 360 | 3.0 | 9.0 | 0.00 | 0.00 | 0.00 | 100 | 1019.9 |
| 20260501190009 | 56 | 360 | 5.0 | 9.0 | 0.00 | 0.00 | 0.00 | 100 | 1019.8 |
| 20260501184506 | 56 | 360 | 6.0 | 11.0 | 0.00 | 0.00 | 0.00 | 100 | 1019.7 |
| 20260501183006 | 57 | 360 | 6.0 | 10.0 | 0.00 | 0.00 | 0.00 | 100 | 1019.6 |
| 20260501174506 | 60 | 360 | 8.0 | 12.0 | 0.00 | 0.00 | 0.00 | 100 | 1019.4 |
| 20260501173006 | 61 | 360 | 6.0 | 12.0 | 0.00 | 0.00 | 0.00 | 100 | 1019.2 |
| 20260501171506 | 61 | 360 | 6.0 | 12.0 | 0.00 | 0.00 | 0.00 | 100 | 1019.2 |
| 20260501170008 | 62 | 360 | 7.0 | 13.0 | 0.00 | 0.00 | 0.00 | 100 | 1019.1 |
| 20260501164506 | 62 | 360 | 9.0 | 15.0 | 0.00 | 0.00 | 0.00 | 100 | 1019.3 |
| 20260501161507 | 64 | 309 | 8.0 | 15.0 | 0.00 | 0.00 | 0.00 | 100 | 1019.2 |